Llodio, Spain
Current Conditions -  °F | °C
As of 3:30 PM on Sunday 23 Nov 2014 (Local Time) from LEBB Reporting Station
Clear Clear  
Wind Chill: 63°   Ceiling: Unl
Heat Index: 63°   Visibility: 6mi
Dew Point: 59°   Wind: 6mph
Humidity: 88%   Direction: 300°WNW
Pressure: 29.88"   Gusts: NA
Location:  43.14°N, 2.96°W
Report Text: LEBB 231430Z 30005KT 260V330 CAVOK 17/15 Q1012 NOSIG
Loading
Personal Weather Stations






























Interactive Weather Map New forecast layout! Learn more

10-Day Weather Forecast

Advertisements
Track Severe Weather on mobile